Oceana NAS, VA

10:07 AM EST on January 18, 2018 (GMT -0500)
Oceana Naval Air Station

Weather History for KNTU - September, 2013

Change the Weather History Date:

Tuesday, September 17, 2013

  Actual Average Record
Temperature  
Mean Temperature 66 °F -  
Max Temperature 72 °F 76 °F 91 °F (2005)
Min Temperature 60 °F 61 °F 53 °F (2000)
Cooling Degree Days 1    
Growing Degree Days 16 (Base 50)    
Moisture  
Dew Point 55 °F    
Average Humidity 68    
Maximum Humidity 84    
Minimum Humidity 56    
Precipitation  
Precipitation 0.00 in - - ()
Sea Level Pressure  
Sea Level Pressure 30.28 in    
Wind  
Wind Speed 14 mph (NNE)    
Max Wind Speed 20 mph    
Max Gust Speed 29 mph    
Visibility 10 miles    
Events      
Averages and records for this station are not official NWS values.
T = Trace of Precipitation, MM = Missing Value Source: NWS Daily Summary

Daily Weather History Graph

Daily Weather History Graph

Search for Another Location

Airport or City:

Trip Planner

Search our weather history database for the weather conditions in past years. The results will help you decide how hot, cold, wet, or windy it might be!

Date:

Astronomy

Sep. 17, 2013 Rise Set
Actual Time 6:48 AM EDT 7:08 PM EDT
Civil Twilight 6:22 AM EDT 7:34 PM EDT
Nautical Twilight 5:51 AM EDT 8:04 PM EDT
Astronomical Twilight 5:20 AM EDT 8:35 PM EDT
Moon 5:52 PM EDT (9/17) 4:42 AM EDT (9/17)
Length of Visible Light 13h 11m
Length of Day
12h 20m
Waxing Gibbous, 96% of the Moon is Illuminated
Sep 17
Waxing Gibbous
Sep 19
Full
Sep 26
Last Quarter
Oct 4
New
Oct 11
First Quarter

Hourly Weather History & Observations

Time (EDT) Temp. Dew Point Humidity Pressure Visibility Wind Dir Wind Speed Gust Speed Precip Events Conditions
12:56 AM 66.0 °F 55.9 °F 70% 30.19 in 10.0 mi North 11.5 mph - N/A   Scattered Clouds
1:56 AM 66.0 °F 55.9 °F 70% 30.19 in 10.0 mi North 8.1 mph - N/A   Scattered Clouds
2:56 AM 66.0 °F 55.0 °F 68% 30.19 in 10.0 mi NNE 15.0 mph - N/A   Scattered Clouds
3:56 AM 66.0 °F 57.0 °F 73% 30.20 in 10.0 mi North 10.4 mph - N/A   Scattered Clouds
4:56 AM 64.9 °F 57.9 °F 78% 30.21 in 10.0 mi NNE 9.2 mph - N/A   Scattered Clouds
5:56 AM 64.9 °F 59.0 °F 81% 30.22 in 10.0 mi NNE 15.0 mph - N/A   Scattered Clouds
6:56 AM 64.0 °F 59.0 °F 84% 30.25 in 10.0 mi NNE 17.3 mph 24.2 mph N/A   Scattered Clouds
7:56 AM 64.9 °F 59.0 °F 81% 30.27 in 10.0 mi NNE 12.7 mph 25.3 mph N/A   Scattered Clouds
8:56 AM 68.0 °F 59.0 °F 73% 30.29 in 10.0 mi NNE 18.4 mph 25.3 mph N/A   Mostly Cloudy
9:56 AM 68.0 °F 59.0 °F 73% 30.32 in 10.0 mi NNE 18.4 mph 26.5 mph N/A   Mostly Cloudy
10:56 AM 69.1 °F 59.0 °F 70% 30.33 in 10.0 mi NNE 18.4 mph 28.8 mph N/A   Mostly Cloudy
11:56 AM 72.0 °F 59.0 °F 64% 30.34 in 10.0 mi NNE 17.3 mph 24.2 mph N/A   Mostly Cloudy
12:56 PM 70.0 °F 57.0 °F 63% 30.34 in 10.0 mi NNE 18.4 mph 26.5 mph N/A   Mostly Cloudy
1:43 PM 70.0 °F 55.9 °F 61% 30.32 in 10.0 mi NNE 19.6 mph 26.5 mph N/A   Scattered Clouds
1:56 PM 71.1 °F 57.0 °F 61% 30.33 in 10.0 mi NNE 17.3 mph 23.0 mph N/A   Scattered Clouds
2:56 PM 69.1 °F 55.9 °F 63% 30.31 in 10.0 mi NNE 16.1 mph 25.3 mph N/A   Mostly Cloudy
3:37 PM 68.0 °F 53.1 °F 59% 30.30 in 10.0 mi NNE 15.0 mph - N/A   Mostly Cloudy
3:56 PM 66.9 °F 54.0 °F 63% 30.31 in 10.0 mi NNE 12.7 mph - N/A   Mostly Cloudy
4:56 PM 66.9 °F 53.1 °F 61% 30.31 in 10.0 mi NE 13.8 mph - N/A   Mostly Cloudy
5:56 PM 66.0 °F 50.0 °F 56% 30.31 in 10.0 mi NE 13.8 mph 20.7 mph N/A   Scattered Clouds
6:56 PM 63.0 °F 50.0 °F 63% 30.30 in 10.0 mi NE 12.7 mph - N/A   Scattered Clouds
7:56 PM 62.1 °F 48.9 °F 62% 30.30 in 10.0 mi NE 12.7 mph - N/A   Partly Cloudy
8:56 PM 62.1 °F 48.0 °F 60% 30.31 in 10.0 mi NE 15.0 mph - N/A   Partly Cloudy
9:56 PM 60.1 °F 48.9 °F 67% 30.31 in 10.0 mi NE 10.4 mph - N/A   Partly Cloudy
10:56 PM 61.0 °F 52.0 °F 72% 30.31 in 10.0 mi NNE 12.7 mph - N/A   Scattered Clouds
11:56 PM 62.1 °F 52.0 °F 70% 30.30 in 10.0 mi NE 13.8 mph - N/A   Scattered Clouds